{"data":{"norad_id":55324,"epoch":"2026-05-25T05:30:51.703776Z","epoch_age_seconds":48392,"freshness":"FRESH","line1":"1 55324U 23011A   26145.22976509  .00004255  00000+0  18691-3 0  9997","line2":"2 55324  40.4976 125.9512 0004529 244.0665 115.9678 15.22696894184342","mean_motion":15.22696894,"eccentricity":0.0004529,"inclination_deg":40.4976,"raan_deg":125.9512,"arg_perigee_deg":244.0665,"mean_anomaly_deg":115.9678,"bstar":0.00018691,"rev_number":18434,"period_min":94.56905085143,"perigee_km":494.59586233986,"apogee_km":500.82400449215,"semimajor_km":6875.846933416,"source":"CELESTRAK","updated_at":"2026-05-25T13:38:24.929796Z"}}